Home   Weather   New Orleans   Past weeks

Flag for USA Past Weather in New Orleans, Louisiana, USA — Yesterday and Last 2 Weeks

Now
82 °F

Cloudy.


Feels Like: 89 °F
Forecast: 76 / 85 °F
Wind: 17 mph from Southeast

Location: Lakefront Airport

Current Time: Apr 28, 2017 at 7:10:03 pm

Latest Report: Apr 28, 2017 at 6:37 pm


Visibility: 9 mi

Pressure: 29.89 "Hg

Humidity: 79%

Dew Point: 75 °F

Location of New OrleansLocation

Past Weather in New Orleans — Graph

°F

New Orleans Temperature Yesterday

Maximum temperature yesterday: 80 °F (at 4:53 pm)
Minimum temperature yesterday: 68 °F (at 6:53 am)
Average temperature yesterday: 74 °F

High & Low Weather Summary for the Past Weeks

 TemperatureHumidityPressure
High87 °F (Apr 28, 1:36 pm)97% (Apr 18, 6:53 am)30.19 "Hg (Apr 18, 6:53 am)
Low62 °F (Apr 23, 9:53 pm)42% (Apr 13, 6:53 pm)29.62 "Hg (Apr 26, 6:53 pm)
Average74 °F75%29.95 "Hg
* Reported Apr 13 5:53 pm — Apr 28 5:53 pm, New Orleans, Weather by CustomWeather, © 2017

Note: Actual official high and low records may vary slightly from our data, if they occured in-between our weather recording intervals... More about our weather records

Advertising

New Orleans Weather History for the Previous 24 Hours

Scroll right to see more
 ConditionsComfort  
Time TempWeatherWind HumidityBarometerVisibility
5:53 pm
Fri, Apr 28
83 °FMostly cloudy.20 mph74%29.86 "Hg9 mi
4:53 pm84 °FCloudy.20 mph72%29.86 "Hg10 mi
4:00 pm85 °FMostly cloudy.21 mph70%29.88 "Hg10 mi
3:35 pm85 °FMore clouds than sun.17 mph70%29.88 "Hg10 mi
2:53 pm85 °FMostly cloudy.21 mph72%29.87 "Hg10 mi
1:53 pm85 °FBroken clouds.26 mph70%29.88 "Hg10 mi
1:36 pm87 °FBroken clouds.22 mph67%29.90 "Hg10 mi
12:53 pm84 °FMostly cloudy.20 mph74%29.88 "Hg10 mi
11:53 am82 °FMostly cloudy.18 mph77%29.88 "Hg9 mi
11:31 am83 °FMostly cloudy.22 mph74%29.89 "Hg9 mi
10:53 am82 °FMostly cloudy.22 mph77%29.87 "Hg9 mi
9:53 am82 °FCloudy.17 mph77%29.86 "Hg8 mi
9:01 am80 °FMore clouds than sun.17 mph81%29.87 "Hg8 mi
7:53 am80 °FMostly cloudy.17 mph81%29.83 "Hg8 mi
6:53 am79 °FMostly cloudy.15 mph84%29.82 "Hg8 mi
6:25 am79 °FCloudy.17 mph84%29.82 "Hg9 mi
5:53 am79 °FMostly cloudy.13 mph88%29.79 "Hg10 mi
5:18 am79 °FMostly cloudy.16 mph88%29.80 "Hg10 mi
4:53 am79 °FMostly cloudy.17 mph88%29.77 "Hg10 mi
4:39 am79 °FMostly cloudy.16 mph88%29.79 "Hg10 mi
4:30 am79 °FMostly cloudy.14 mph88%29.79 "Hg10 mi
3:53 am78 °FMostly cloudy.17 mph90%29.76 "Hg10 mi
3:30 am78 °FMostly cloudy.14 mph87%29.78 "Hg10 mi
2:53 am78 °FMostly cloudy.13 mph87%29.75 "Hg10 mi
2:28 am78 °FMostly cloudy.14 mph87%29.77 "Hg10 mi
2:12 am78 °FMostly cloudy.14 mph87%29.78 "Hg10 mi
1:53 am78 °FMostly cloudy.15 mph87%29.76 "Hg9 mi
12:53 am77 °FPartly cloudy.12 mph90%29.77 "Hg9 mi
12:35 am77 °FPartly cloudy.14 mph90%29.78 "Hg9 mi
11:53 pm
Thu, Apr 27
77 °FPassing clouds.10 mph88%29.77 "Hg9 mi
10:53 pm75 °FClear.9 mph90%29.79 "Hg10 mi
9:53 pm75 °FClear.9 mph85%29.79 "Hg10 mi
8:53 pm76 °FClear.10 mph80%29.78 "Hg10 mi
7:53 pm78 °FClear.8 mph62%29.77 "Hg10 mi
Weather by CustomWeather, © 2017

See weather overviewHow to use our weather pages